Weather History for KRBD - January, 2013

Change the Weather History Date:

Wednesday, January 30, 2013

  Actual Average Record
Temperature  
Mean Temperature 46 °F -  
Max Temperature 54 °F 55 °F 73 °F (2011)
Min Temperature 36 °F 37 °F 23 °F (2000)
Degree Days  
Heating Degree Days 20    
Moisture  
Dew Point 25 °F    
Average Humidity 45    
Maximum Humidity 68    
Minimum Humidity 26    
Precipitation  
Precipitation 0.00 in - - ()
Sea Level Pressure  
Sea Level Pressure 29.97 in    
Wind  
Wind Speed 13 mph (WNW)    
Max Wind Speed 25 mph    
Max Gust Speed 37 mph    
Visibility 10 miles    
Events      
Averages and records for this station are not official NWS values.
T = Trace of Precipitation, MM = Missing Value Source: NWS Daily Summary

Daily Weather History Graph

Daily Weather History Graph

Search for Another Location

Airport or City:

Trip Planner

Search our weather history database for the weather conditions in past years. The results will help you decide how hot, cold, wet, or windy it might be!

Date:

Astronomy

Jan. 30, 2013 Rise Set
Actual Time 7:23 AM CST 5:58 PM CST
Civil Twilight 6:57 AM CST 6:24 PM CST
Nautical Twilight 6:27 AM CST 6:54 PM CST
Astronomical Twilight 5:58 AM CST 7:23 PM CST
Moon 9:41 PM CST 9:06 AM CST
Length of Visible Light 11h 27m
Length of Day
10h 35m
Waning Gibbous, 87% of the Moon is Illuminated
Jan 30
Waning Gibbous
Feb 3
Last Quarter
Feb 10
New
Feb 17
First Quarter
Feb 25
Full

Hourly Weather History & Observations

Time (CST) Temp. Windchill Dew Point Humidity Pressure Visibility Wind Dir Wind Speed Gust Speed Precip Events Conditions
12:53 AM 53.1 °F - 28.0 °F 38% 29.69 in 10.0 mi WSW 6.9 mph - N/A   Clear
1:53 AM 51.1 °F - 27.0 °F 39% 29.70 in 10.0 mi West 8.1 mph - N/A   Clear
2:53 AM 50.0 °F - 26.1 °F 39% 29.71 in 10.0 mi West 10.4 mph - N/A   Clear
3:53 AM 46.9 °F - 34.0 °F 61% 29.74 in 10.0 mi WNW 18.4 mph 27.6 mph N/A   Clear
4:53 AM 45.0 °F 37.1 °F 35.1 °F 68% 29.78 in 10.0 mi NW 19.6 mph 27.6 mph N/A   Mostly Cloudy
5:15 AM 44.6 °F 38.1 °F 33.8 °F 66% 29.79 in 10.0 mi NW 13.8 mph 27.6 mph N/A   Mostly Cloudy
5:53 AM 44.1 °F 36.2 °F 33.1 °F 65% 29.82 in 10.0 mi WNW 18.4 mph 25.3 mph N/A   Overcast
7:53 AM 43.0 °F 35.1 °F 30.0 °F 60% 29.92 in 10.0 mi WNW 17.3 mph 27.6 mph N/A   Overcast
8:53 AM 44.1 °F 34.8 °F 28.0 °F 53% 29.95 in 10.0 mi WNW 25.3 mph 36.8 mph N/A   Overcast
9:53 AM 46.0 °F 37.6 °F 28.0 °F 50% 30.00 in 10.0 mi NW 24.2 mph 34.5 mph N/A   Mostly Cloudy
10:53 AM 48.0 °F - 27.0 °F 44% 30.03 in 10.0 mi NW 19.6 mph 34.5 mph N/A   Mostly Cloudy
11:53 AM 51.1 °F - 27.0 °F 39% 30.04 in 10.0 mi WNW 21.9 mph 29.9 mph N/A   Mostly Cloudy
12:53 PM 51.1 °F - 27.0 °F 39% 30.04 in 10.0 mi WNW 23.0 mph 31.1 mph N/A   Mostly Cloudy
2:53 PM 54.0 °F - 19.9 °F 26% 30.03 in 10.0 mi NW 18.4 mph 26.5 mph N/A   Partly Cloudy
3:53 PM 53.1 °F - 19.0 °F 26% 30.05 in 10.0 mi NW 20.7 mph 27.6 mph N/A   Clear
4:53 PM 52.0 °F - 19.9 °F 28% 30.08 in 10.0 mi WNW 15.0 mph 21.9 mph N/A   Clear
5:53 PM 48.9 °F - 18.0 °F 29% 30.09 in 10.0 mi WNW 17.3 mph 21.9 mph N/A   Clear
6:53 PM 46.0 °F 41.9 °F 19.9 °F 35% 30.13 in 10.0 mi NW 8.1 mph - N/A   Clear
7:53 PM 44.1 °F 42.5 °F 21.0 °F 40% 30.13 in 10.0 mi WNW 3.5 mph - N/A   Clear
8:53 PM 37.9 °F 34.4 °F 21.9 °F 53% 30.15 in 10.0 mi SW 4.6 mph - N/A   Clear
9:53 PM 39.9 °F 36.7 °F 21.0 °F 47% 30.14 in 10.0 mi SSW 4.6 mph - N/A   Clear
10:53 PM 39.0 °F 36.8 °F 21.0 °F 49% 30.13 in 10.0 mi SW 3.5 mph - N/A   Clear
11:53 PM 36.0 °F 33.3 °F 19.9 °F 52% 30.13 in 10.0 mi SSW 3.5 mph - N/A   Clear